WB4FAY-4 Weather Reports


Display with metric or nautical units.
time (UTC)temp
F
wind
direction
speed
MPH
gust
MPH
rain 1hr
in
rain 24hr
in
rain mn
in
humidity
%
barometer
mb
20170627122117 68 83 0.0 3.0 0.00 0.00 0.00 86 1019.0
20170627121617 67 0 0.0 0.0 0.00 0.00 0.00 86 1019.0
20170627121117 67 0 0.0 0.0 0.00 0.00 0.00 86 1018.9
20170627120617 67 0 0.0 0.0 0.00 0.00 0.00 86 1018.9
20170627120117 67 0 0.0 0.0 0.00 0.00 0.00 86 1018.9
20170627115617 66 0 0.0 0.0 0.00 0.00 0.00 86 1018.9
20170627115118 66 0 0.0 0.0 0.00 0.00 0.00 86 1018.9
20170627114617 66 0 0.0 0.0 0.00 0.00 0.00 85 1018.9
20170627114117 66 0 0.0 0.0 0.00 0.00 0.00 85 1018.9
20170627113616 66 0 0.0 0.0 0.00 0.00 0.00 85 1018.9
20170627113118 66 0 0.0 0.0 0.00 0.00 0.00 85 1018.8
20170627112618 66 0 0.0 0.0 0.00 0.00 0.00 85 1018.8
20170627112117 66 0 0.0 0.0 0.00 0.00 0.00 85 1018.7
20170627111618 66 0 0.0 0.0 0.00 0.00 0.00 85 1018.8
20170627111118 66 0 0.0 0.0 0.00 0.00 0.00 85 1018.7
20170627110618 66 0 0.0 0.0 0.00 0.00 0.00 85 1018.6
20170627110118 66 0 0.0 0.0 0.00 0.00 0.00 84 1018.7
20170627105617 66 0 0.0 0.0 0.00 0.00 0.00 84 1018.8
20170627105118 66 0 0.0 0.0 0.00 0.00 0.00 84 1018.7
20170627104617 66 0 0.0 0.0 0.00 0.00 0.00 84 1018.7
20170627104118 66 0 0.0 0.0 0.00 0.00 0.00 84 1018.6
20170627103617 66 0 0.0 0.0 0.00 0.00 0.00 84 1018.5
20170627103117 66 0 0.0 0.0 0.00 0.00 0.00 85 1018.5
20170627102617 66 0 0.0 0.0 0.00 0.00 0.00 85 1018.5
20170627102117 66 0 0.0 0.0 0.00 0.00 0.00 84 1018.5
20170627101621 66 93 0.0 2.0 0.00 0.00 0.00 84 1018.5
20170627101118 66 0 0.0 0.0 0.00 0.00 0.00 84 1018.5
20170627100627 66 0 0.0 0.0 0.00 0.00 0.00 84 1018.4
20170627100119 66 0 0.0 0.0 0.00 0.00 0.00 84 1018.4
20170627095617 66 0 0.0 0.0 0.00 0.00 0.00 84 1018.5
20170627095117 66 0 0.0 0.0 0.00 0.00 0.00 84 1018.4
20170627094617 66 0 0.0 0.0 0.00 0.00 0.00 84 1018.5
20170627094117 67 0 0.0 0.0 0.00 0.00 0.00 84 1018.4
20170627093617 66 0 0.0 0.0 0.00 0.00 0.00 84 1018.4
20170627093118 67 0 0.0 0.0 0.00 0.00 0.00 83 1018.3
20170627092618 67 0 0.0 0.0 0.00 0.00 0.00 83 1018.3
20170627092117 67 0 0.0 0.0 0.00 0.00 0.00 83 1018.3
20170627091620 67 0 0.0 0.0 0.00 0.00 0.00 83 1018.2
20170627091117 67 0 0.0 0.0 0.00 0.00 0.00 82 1018.1
20170627090617 67 0 0.0 0.0 0.00 0.00 0.00 82 1018.2
20170627090117 68 0 0.0 0.0 0.00 0.00 0.00 82 1018.2
20170627085618 68 0 0.0 0.0 0.00 0.00 0.00 82 1018.1
20170627085117 68 0 0.0 0.0 0.00 0.00 0.00 82 1018.1
20170627084617 68 0 0.0 0.0 0.00 0.00 0.00 82 1018.0
20170627084116 68 0 0.0 0.0 0.00 0.00 0.00 81 1017.9
20170627083617 68 0 0.0 0.0 0.00 0.00 0.00 81 1018.0
20170627083117 68 0 0.0 0.0 0.00 0.00 0.00 81 1017.9
20170627082616 68 0 0.0 0.0 0.00 0.00 0.00 81 1018.0
20170627082117 68 0 0.0 0.0 0.00 0.00 0.00 80 1018.0
20170627081617 68 0 0.0 0.0 0.00 0.00 0.00 80 1018.0
20170627081117 68 0 0.0 0.0 0.00 0.00 0.00 80 1018.0
20170627080617 68 66 0.0 1.0 0.00 0.00 0.00 80 1018.0
20170627080117 68 68 0.0 2.0 0.00 0.00 0.00 80 1017.9
20170627075617 68 0 1.0 0.0 0.00 0.00 0.00 79 1018.0
20170627075116 68 0 0.0 0.0 0.00 0.00 0.00 79 1018.0
20170627074617 68 0 0.0 0.0 0.00 0.00 0.00 79 1018.2
20170627074117 69 0 0.0 0.0 0.00 0.00 0.00 79 1018.2
20170627073617 69 0 0.0 0.0 0.00 0.00 0.00 79 1018.3
20170627073117 69 0 0.0 0.0 0.00 0.00 0.00 78 1018.2
20170627072617 69 0 0.0 0.0 0.00 0.00 0.00 78 1018.3
20170627072117 69 0 0.0 0.0 0.00 0.00 0.00 78 1018.4
20170627071617 69 0 0.0 0.0 0.00 0.00 0.00 77 1018.4
20170627071117 70 0 0.0 0.0 0.00 0.00 0.00 77 1018.5
20170627070617 70 0 0.0 0.0 0.00 0.00 0.00 77 1018.4
20170627070117 70 0 0.0 0.0 0.00 0.00 0.00 77 1018.5
20170627065617 70 0 0.0 0.0 0.00 0.00 0.00 76 1018.5
20170627065117 70 0 0.0 0.0 0.00 0.00 0.00 76 1018.7
20170627064617 70 0 0.0 0.0 0.00 0.00 0.00 75 1018.7
20170627064117 71 0 0.0 0.0 0.00 0.00 0.00 76 1018.7
20170627063617 71 0 0.0 0.0 0.00 0.00 0.00 75 1018.7
20170627063117 71 0 0.0 0.0 0.00 0.00 0.00 74 1018.7
20170627062617 71 0 0.0 0.0 0.00 0.00 0.00 73 1018.7
20170627062117 72 0 0.0 0.0 0.00 0.00 0.00 72 1018.6
20170627061617 72 0 0.0 0.0 0.00 0.00 0.00 71 1018.7
20170627061117 72 0 0.0 0.0 0.00 0.00 0.00 70 1018.8
20170627060617 73 0 0.0 0.0 0.00 0.00 0.00 69 1018.8
20170627060117 73 0 0.0 0.0 0.00 0.00 0.00 68 1018.8
20170627055617 73 0 0.0 0.0 0.00 0.00 0.00 67 1018.8
20170627055117 73 0 0.0 0.0 0.00 0.00 0.00 66 1018.9
20170627054617 73 0 0.0 0.0 0.00 0.00 0.00 66 1019.0
20170627054116 74 0 0.0 0.0 0.00 0.00 0.00 66 1019.1
20170627053617 74 0 0.0 0.0 0.00 0.00 0.00 66 1019.3
20170627053117 74 0 0.0 0.0 0.00 0.00 0.00 66 1019.3
20170627052617 74 0 0.0 0.0 0.00 0.00 0.00 65 1019.3
20170627052117 74 0 0.0 0.0 0.00 0.00 0.00 65 1019.5
20170627051617 74 0 0.0 0.0 0.00 0.00 0.00 64 1019.7
20170627051117 74 103 0.0 1.0 0.00 0.00 0.00 63 1019.8
20170627050618 75 0 0.0 0.0 0.00 0.00 0.00 63 1019.8
20170627050117 75 0 0.0 0.0 0.00 0.00 0.00 62 1019.8
20170627045618 75 75 0.0 2.0 0.00 0.01 0.00 62 1019.8
20170627045117 75 45 1.0 1.0 0.00 0.01 0.00 62 1019.8
20170627044617 75 73 0.0 1.0 0.00 0.01 0.00 62 1019.7
20170627044117 75 65 0.0 1.0 0.00 0.01 0.00 62 1019.7
20170627043617 75 90 1.0 3.0 0.00 0.01 0.00 61 1019.7
20170627043117 75 88 0.0 3.0 0.00 0.01 0.00 62 1019.6
20170627042616 75 82 2.0 2.0 0.00 0.01 0.00 61 1019.7
20170627042117 75 0 0.0 0.0 0.00 0.01 0.00 61 1019.7
20170627041617 75 0 0.0 0.0 0.00 0.01 0.00 61 1019.6
20170627041117 75 83 0.0 3.0 0.00 0.01 0.00 61 1019.6
20170627040617 75 106 0.0 5.0 0.00 0.01 0.00 60 1019.6
20170627040117 75 68 0.0 3.0 0.00 0.01 0.00 60 1019.5
20170627035617 75 56 0.0 1.0 0.00 0.01 0.00 60 1019.5
20170627035118 75 83 0.0 4.0 0.00 0.01 0.00 60 1019.6
20170627034617 76 99 0.0 3.0 0.00 0.01 0.00 59 1019.5
20170627034117 76 102 0.0 2.0 0.00 0.01 0.00 59 1019.4
20170627033618 76 37 1.0 2.0 0.00 0.01 0.00 58 1019.4
20170627033117 76 31 0.0 0.0 0.00 0.01 0.00 58 1019.4
20170627032617 76 89 0.0 2.0 0.00 0.01 0.00 58 1019.4
20170627032117 76 99 2.0 4.0 0.00 0.01 0.00 57 1019.3
20170627031619 76 35 1.0 2.0 0.00 0.01 0.00 57 1019.3
20170627031119 76 352 1.0 1.0 0.00 0.01 0.00 57 1019.4
20170627030619 76 76 0.0 5.0 0.00 0.01 0.00 57 1019.3
20170627030119 76 92 1.0 5.0 0.00 0.01 0.00 57 1019.1
20170627025619 76 85 0.0 5.0 0.00 0.01 0.00 56 1019.0
20170627025120 76 10 3.0 8.0 0.00 0.01 0.00 56 1019.0
20170627024620 76 31 3.0 8.0 0.00 0.01 0.00 56 1018.9
20170627024119 76 318 2.0 4.0 0.00 0.01 0.00 56 1018.9
20170627023620 76 11 0.0 5.0 0.00 0.01 0.00 56 1018.9
20170627023129 76 340 0.0 5.0 0.00 0.01 0.00 57 1018.7
20170627022620 76 30 1.0 6.0 0.00 0.01 0.00 57 1018.7
20170627022122 76 23 0.0 6.0 0.00 0.01 0.00 57 1018.6
20170627021623 75 4 0.0 8.0 0.00 0.01 0.00 58 1018.6
20170627021120 75 20 7.0 9.0 0.00 0.01 0.00 59 1018.5
20170627020620 75 27 0.0 9.0 0.00 0.01 0.00 59 1018.5
20170627020121 74 17 0.0 7.0 0.00 0.01 0.00 60 1018.5
20170627015625 74 0 3.0 0.0 0.00 0.01 0.00 61 1018.4
20170627015121 75 0 0.0 0.0 0.00 0.01 0.00 60 1018.4
20170627014620 75 0 0.0 0.0 0.00 0.01 0.00 60 1018.3
20170627014125 75 0 0.0 0.0 0.00 0.01 0.00 60 1018.3
20170627013621 75 0 0.0 0.0 0.00 0.01 0.00 59 1018.3
20170627013120 75 0 0.0 0.0 0.00 0.01 0.00 59 1018.3
20170627012627 75 0 0.0 0.0 0.00 0.01 0.00 58 1018.3
20170627012122 76 0 0.0 0.0 0.00 0.01 0.00 58 1018.3
20170627011621 76 0 0.0 0.0 0.00 0.01 0.00 58 1018.2
20170627011127 76 0 0.0 0.0 0.00 0.01 0.00 57 1018.2
20170627010620 76 0 0.0 0.0 0.00 0.01 0.00 56 1018.2
20170627010121 77 0 0.0 0.0 0.00 0.01 0.00 55 1018.2
20170627005619 77 0 0.0 0.0 0.00 0.01 0.00 54 1018.2
20170627005125 78 0 0.0 0.0 0.00 0.01 0.00 53 1018.2
20170627004620 78 0 0.0 0.0 0.00 0.01 0.00 52 1018.2
20170627004125 79 0 0.0 0.0 0.00 0.01 0.00 50 1018.1
20170627003620 79 0 0.0 0.0 0.00 0.01 0.00 49 1018.1
20170627003120 80 0 0.0 0.0 0.00 0.01 0.00 48 1018.1
20170627002624 80 0 0.0 0.0 0.00 0.01 0.00 47 1018.1
20170627002120 80 6 0.0 2.0 0.00 0.01 0.00 46 1018.1
20170627001619 81 23 0.0 0.0 0.00 0.01 0.00 43 1018.0
20170627001119 81 44 0.0 5.0 0.00 0.01 0.00 42 1018.1
20170627000619 81 75 0.0 5.0 0.00 0.01 0.00 41 1018.0
20170627000117 82 79 0.0 5.0 0.00 0.01 0.00 41 1018.0
20170626235620 82 82 0.0 3.0 0.00 0.01 0.00 41 1018.1
20170626235120 82 92 0.0 4.0 0.00 0.01 0.00 41 1018.1
20170626234621 82 79 1.0 6.0 0.00 0.01 0.00 40 1018.1
20170626234119 82 79 1.0 3.0 0.00 0.01 0.00 40 1018.1
20170626233619 83 85 0.0 6.0 0.00 0.01 0.00 40 1018.1
20170626233120 82 68 5.0 6.0 0.00 0.01 0.00 40 1018.1
20170626232620 83 80 0.0 2.0 0.00 0.01 0.00 39 1018.1
20170626232120 83 78 0.0 5.0 0.00 0.01 0.00 39 1018.1
20170626231620 83 82 0.0 4.0 0.00 0.01 0.00 38 1018.1
20170626231122 83 62 0.0 6.0 0.00 0.01 0.00 38 1018.1
20170626230621 84 45 0.0 6.0 0.00 0.01 0.00 37 1018.1
20170626230117 84 79 2.0 8.0 0.00 0.01 0.00 37 1018.1
20170626225617 84 14 4.0 8.0 0.00 0.01 0.00 38 1018.0
20170626225118 84 85 0.0 2.0 0.00 0.01 0.00 39 1018.1
20170626224617 84 93 0.0 6.0 0.00 0.01 0.00 38 1018.0
20170626224117 84 31 2.0 5.0 0.00 0.01 0.00 38 1018.1
20170626223618 84 112 4.0 7.0 0.00 0.01 0.00 37 1018.0
20170626223117 85 41 0.0 3.0 0.00 0.01 0.00 39 1018.1
20170626222617 85 17 0.0 7.0 0.00 0.01 0.00 36 1018.2
20170626222120 86 23 0.0 6.0 0.00 0.01 0.00 34 1018.2
20170626221619 86 86 3.0 7.0 0.00 0.01 0.00 34 1018.2
20170626221120 86 82 7.0 6.0 0.00 0.01 0.00 34 1018.3
20170626220619 86 344 0.0 8.0 0.00 0.01 0.00 33 1018.3
20170626220119 87 83 6.0 8.0 0.00 0.01 0.00 33 1018.4
20170626215624 87 35 2.0 8.0 0.00 0.01 0.00 34 1018.4
20170626215119 87 31 0.0 6.0 0.00 0.01 0.00 33 1018.4
20170626214619 87 86 1.0 7.0 0.00 0.01 0.00 32 1018.4
20170626214120 87 86 3.0 8.0 0.00 0.01 0.00 32 1018.5
20170626213620 87 1 1.0 8.0 0.00 0.01 0.00 34 1018.6
20170626213119 87 11 0.0 7.0 0.00 0.01 0.00 34 1018.5
20170626212620 87 93 1.0 8.0 0.00 0.01 0.00 33 1018.7
20170626212119 87 85 1.0 8.0 0.00 0.01 0.00 34 1018.7
20170626211621 87 61 4.0 6.0 0.00 0.01 0.00 33 1018.7
20170626211121 86 34 0.0 4.0 0.00 0.01 0.00 34 1018.8
20170626210623 86 336 0.0 9.0 0.00 0.01 0.00 33 1018.9
20170626210120 86 6 4.0 8.0 0.00 0.01 0.00 34 1018.9
20170626205120 86 343 2.0 11.0 0.00 0.01 0.00 33 1019.1
20170626204624 86 80 3.0 10.0 0.00 0.01 0.00 34 1019.1
20170626204120 86 65 3.0 11.0 0.00 0.01 0.00 35 1019.3
20170626203619 86 93 6.0 7.0 0.00 0.01 0.00 34 1019.3
20170626203119 86 30 4.0 6.0 0.00 0.01 0.00 35 1019.3
20170626202618 85 99 0.0 5.0 0.00 0.01 0.00 36 1019.3
20170626202130 85 92 3.0 5.0 0.00 0.01 0.00 37 1019.5
20170626201620 85 86 0.0 6.0 0.00 0.01 0.00 36 1019.5
20170626201120 85 62 0.0 10.0 0.00 0.01 0.00 34 1019.5
20170626200619 85 21 5.0 8.0 0.00 0.01 0.00 36 1019.5
20170626200129 85 7 3.0 7.0 0.00 0.01 0.00 36 1019.6
20170626195620 85 6 3.0 10.0 0.00 0.01 0.00 33 1019.8
20170626195125 85 102 4.0 10.0 0.00 0.01 0.00 35 1019.7
20170626194620 85 96 4.0 6.0 0.00 0.01 0.00 34 1019.8
20170626194120 85 56 2.0 5.0 0.00 0.01 0.00 37 1019.8
20170626193619 85 78 1.0 5.0 0.00 0.01 0.00 35 1019.9
20170626193120 85 96 0.0 5.0 0.00 0.01 0.00 38 1020.0
20170626192621 85 85 0.0 10.0 0.00 0.01 0.00 37 1020.0
20170626192119 84 24 4.0 2.0 0.00 0.01 0.00 38 1020.1
20170626191617 85 85 0.0 6.0 0.00 0.01 0.00 37 1020.1
20170626191117 85 80 0.0 12.0 0.00 0.01 0.00 35 1020.2
20170626190617 85 88 2.0 9.0 0.00 0.01 0.00 34 1020.3
20170626190117 85 90 3.0 10.0 0.00 0.01 0.00 36 1020.4
20170626185617 85 88 0.0 9.0 0.00 0.01 0.00 37 1020.4
20170626185121 85 79 2.0 7.0 0.00 0.01 0.00 36 1020.5
20170626184617 85 16 0.0 6.0 0.00 0.01 0.00 37 1020.5
20170626184117 84 11 0.0 4.0 0.00 0.01 0.00 36 1020.7
20170626183617 84 58 0.0 6.0 0.00 0.01 0.00 37 1020.7
20170626183118 84 93 2.0 6.0 0.00 0.01 0.00 34 1020.8
20170626182622 84 76 3.0 5.0 0.00 0.01 0.00 37 1020.8
20170626182117 84 72 0.0 6.0 0.00 0.01 0.00 37 1020.9
20170626181617 84 71 1.0 6.0 0.00 0.01 0.00 36 1020.9
20170626181117 84 75 4.0 13.0 0.00 0.01 0.00 35 1020.9
20170626180616 84 76 6.0 10.0 0.00 0.01 0.00 35 1021.0
20170626180117 84 64 0.0 8.0 0.00 0.01 0.00 36 1021.1
20170626175617 83 59 1.0 3.0 0.00 0.01 0.00 38 1021.1
20170626175119 83 37 0.0 7.0 0.00 0.01 0.00 36 1021.2
20170626174647 83 332 4.0 10.0 0.00 0.01 0.00 36 1021.4
20170626174117 83 4 7.0 7.0 0.00 0.01 0.00 37 1021.4
20170626173617 83 56 1.0 9.0 0.00 0.01 0.00 35 1021.5
20170626173117 83 0 3.0 5.0 0.00 0.01 0.00 36 1021.6
20170626172617 83 8 3.0 11.0 0.00 0.01 0.00 36 1021.6
20170626172117 83 66 5.0 10.0 0.00 0.01 0.00 35 1021.5
20170626171616 83 92 4.0 9.0 0.00 0.01 0.00 35 1021.6
20170626171117 83 71 2.0 11.0 0.00 0.01 0.00 36 1021.7
20170626170617 83 27 5.0 14.0 0.00 0.01 0.00 35 1021.8
20170626170117 83 7 2.0 10.0 0.00 0.01 0.00 35 1021.8
20170626165617 83 96 2.0 6.0 0.00 0.01 0.00 36 1021.8
20170626165117 83 102 0.0 8.0 0.00 0.01 0.00 36 1021.9
20170626164617 83 76 1.0 11.0 0.00 0.01 0.00 37 1021.9
20170626164117 82 76 3.0 12.0 0.00 0.01 0.00 37 1021.9
20170626163617 83 68 2.0 8.0 0.00 0.01 0.00 39 1021.9
20170626163117 82 86 1.0 10.0 0.00 0.01 0.00 37 1021.9
20170626162617 82 16 0.0 10.0 0.00 0.01 0.00 37 1022.1
20170626162117 82 88 4.0 8.0 0.00 0.01 0.00 37 1022.1
20170626161617 82 96 4.0 10.0 0.00 0.01 0.00 37 1022.1
20170626161117 81 38 0.0 9.0 0.00 0.01 0.00 39 1022.1
20170626160617 81 89 8.0 10.0 0.00 0.01 0.00 39 1022.2
20170626160117 81 106 3.0 12.0 0.00 0.01 0.00 39 1022.0
20170626155617 81 76 8.0 15.0 0.00 0.01 0.00 38 1022.1
20170626155117 81 69 7.0 12.0 0.00 0.01 0.00 37 1022.1
20170626154617 81 93 4.0 9.0 0.00 0.01 0.00 42 1022.2
20170626154117 80 103 5.0 11.0 0.00 0.01 0.00 42 1022.2
20170626153616 80 83 1.0 7.0 0.00 0.01 0.00 46 1022.1
20170626153117 80 326 3.0 7.0 0.00 0.01 0.00 44 1022.2
20170626152617 80 14 3.0 12.0 0.00 0.01 0.00 46 1022.3
20170626152117 79 350 4.0 6.0 0.00 0.01 0.00 45 1022.3
20170626151617 79 340 2.0 7.0 0.00 0.01 0.00 47 1022.4
20170626151117 79 20 2.0 9.0 0.00 0.01 0.00 47 1022.4
20170626150617 78 82 3.0 3.0 0.00 0.01 0.00 49 1022.4
20170626150121 78 6 2.0 9.0 0.00 0.01 0.00 48 1022.4
20170626145618 77 54 2.0 9.0 0.00 0.01 0.00 51 1022.3
20170626145117 77 76 0.0 7.0 0.00 0.01 0.00 52 1022.4
20170626144617 77 14 3.0 8.0 0.00 0.01 0.00 52 1022.5
20170626144117 77 78 6.0 10.0 0.00 0.01 0.00 53 1022.5
20170626143617 76 30 1.0 9.0 0.00 0.01 0.00 52 1022.6
20170626143117 76 40 3.0 8.0 0.00 0.01 0.00 52 1022.6
20170626142617 75 24 3.0 9.0 0.00 0.01 0.00 54 1022.6
20170626142116 75 10 2.0 10.0 0.00 0.01 0.00 55 1022.6
20170626141620 74 352 2.0 7.0 0.00 0.01 0.00 56 1022.6
20170626141117 74 24 3.0 5.0 0.00 0.01 0.00 60 1022.6
20170626140618 73 21 3.0 6.0 0.00 0.01 0.00 61 1022.6
20170626140117 73 66 3.0 4.0 0.00 0.01 0.00 63 1022.5
20170626135617 72 25 3.0 5.0 0.00 0.01 0.00 63 1022.5
20170626135117 72 336 2.0 6.0 0.00 0.01 0.00 66 1022.6
20170626134617 71 6 5.0 8.0 0.00 0.01 0.00 66 1022.6
20170626134117 71 25 2.0 6.0 0.00 0.01 0.00 68 1022.6
20170626133618 70 13 0.0 6.0 0.00 0.01 0.00 72 1022.6
20170626133117 69 10 1.0 8.0 0.00 0.01 0.00 74 1022.7
20170626132617 68 95 2.0 6.0 0.00 0.01 0.00 76 1022.8
20170626132117 67 14 2.0 9.0 0.00 0.01 0.00 80 1022.7
20170626131617 66 11 2.0 4.0 0.00 0.01 0.00 86 1022.7
20170626131117 66 25 2.0 4.0 0.00 0.01 0.00 91 1022.6
20170626130617 66 49 4.0 4.0 0.00 0.01 0.00 94 1022.5
20170626130117 66 0 2.0 0.0 0.00 0.01 0.00 95 1022.3
20170626125618 66 0 0.0 0.0 0.00 0.01 0.00 95 1022.3
20170626125119 65 0 0.0 0.0 0.00 0.01 0.00 95 1022.4
20170626124618 65 0 0.0 0.0 0.00 0.01 0.00 95 1022.3
20170626124118 64 0 0.0 0.0 0.00 0.01 0.00 95 1022.2
20170626123618 64 0 0.0 0.0 0.00 0.01 0.00 95 1022.2
20170626123119 64 0 0.0 0.0 0.00 0.01 0.00 95 1022.2
20170626122618 63 0 0.0 0.0 0.00 0.01 0.00 95 1022.1